�������l�o���
Date,Time,MP-1(��Sv/h),MP-2(��Sv/h),MP-3(��Sv/h),MP-4(��Sv/h),MP-5(��Sv/h),MP-6(��Sv/h),MP-7(��Sv/h),MP-8(��Sv/h),����,����(m/s),���J
2021/05/30,00:00,0.620,0.912,0.579,1.108,0.789,0.370,0.643,0.604,�k��,2.8,��
2021/05/30,00:10,0.620,0.916,0.580,1.109,0.790,0.371,0.644,0.602,���k��,4.5,��
2021/05/30,00:20,0.621,0.915,0.581,1.108,0.791,0.372,0.644,0.604,���k��,6.2,��
2021/05/30,00:30,0.620,0.912,0.583,1.108,0.792,0.372,0.643,0.602,���k��,5.2,��
2021/05/30,00:40,0.620,0.912,0.582,1.108,0.792,0.369,0.643,0.603,���k��,6.5,��
2021/05/30,00:50,0.620,0.915,0.581,1.110,0.789,0.372,0.644,0.602,���k��,7.1,��
2021/05/30,01:00,0.620,0.916,0.583,1.109,0.790,0.369,0.643,0.603,���k��,6.8,��
2021/05/30,01:10,0.621,0.912,0.582,1.108,0.792,0.370,0.643,0.604,���k��,6.6,��
2021/05/30,01:20,0.621,0.914,0.581,1.108,0.791,0.371,0.642,0.604,���k��,6.6,��
2021/05/30,01:30,0.620,0.914,0.581,1.109,0.793,0.370,0.641,0.602,���k��,10.0,��
2021/05/30,01:40,0.621,0.914,0.582,1.109,0.791,0.370,0.643,0.602,�k��,8.4,��
2021/05/30,01:50,0.619,0.912,0.580,1.108,0.791,0.370,0.640,0.603,�k��,7.0,��
2021/05/30,02:00,0.620,0.914,0.579,1.108,0.789,0.369,0.641,0.602,�k��,5.1,��
2021/05/30,02:10,0.620,0.915,0.579,1.108,0.790,0.371,0.642,0.602,�k��,4.2,��
2021/05/30,02:20,0.620,0.915,0.581,1.110,0.790,0.371,0.641,0.602,�k��,4.8,��
2021/05/30,02:30,0.619,0.912,0.579,1.112,0.788,0.371,0.640,0.603,�k��,4.6,��
2021/05/30,02:40,0.620,0.913,0.580,1.108,0.792,0.371,0.640,0.602,�k��,5.5,��
2021/05/30,02:50,0.619,0.915,0.580,1.108,0.789,0.372,0.641,0.602,�k��,5.3,��
2021/05/30,03:00,0.618,0.914,0.579,1.109,0.791,0.373,0.641,0.604,�k��,6.3,��
2021/05/30,03:10,0.618,0.914,0.578,1.108,0.791,0.371,0.642,0.603,�k��,7.6,��
2021/05/30,03:20,0.618,0.913,0.579,1.111,0.789,0.371,0.641,0.604,�k�k��,5.0,��
2021/05/30,03:30,0.618,0.913,0.580,1.113,0.790,0.371,0.642,0.601,�k�k��,6.0,��
2021/05/30,03:40,0.618,0.910,0.581,1.111,0.791,0.372,0.640,0.602,�k�k��,3.8,��
2021/05/30,03:50,0.619,0.914,0.579,1.109,0.790,0.372,0.642,0.602,�k�k��,4.2,��
2021/05/30,04:00,0.618,0.914,0.582,1.108,0.791,0.370,0.641,0.602,�k��,4.8,��
2021/05/30,04:10,0.618,0.914,0.582,1.111,0.790,0.369,0.641,0.602,�k��,5.6,��
2021/05/30,04:20,0.620,0.914,0.581,1.111,0.791,0.370,0.641,0.602,�k��,4.4,��
2021/05/30,04:30,0.620,0.913,0.582,1.110,0.790,0.371,0.640,0.602,�k�k��,3.4,��
2021/05/30,04:40,0.621,0.914,0.579,1.111,0.790,0.371,0.642,0.604,�k�k��,3.3,��
2021/05/30,04:50,0.620,0.915,0.580,1.108,0.791,0.371,0.642,0.603,�k�k��,4.4,��
2021/05/30,05:00,0.619,0.915,0.582,1.108,0.789,0.371,0.641,0.603,�k�k��,3.7,��
2021/05/30,05:10,0.620,0.914,0.582,1.110,0.791,0.371,0.642,0.603,�k�k��,3.8,��
2021/05/30,05:20,0.619,0.913,0.583,1.109,0.791,0.370,0.641,0.603,�k��,3.1,��
2021/05/30,05:30,0.619,0.915,0.582,1.109,0.791,0.371,0.642,0.602,�k��,2.8,��
2021/05/30,05:40,0.619,0.915,0.581,1.109,0.792,0.370,0.642,0.601,�k��,4.2,��
2021/05/30,05:50,0.619,0.914,0.582,1.109,0.791,0.370,0.641,0.602,�k��,5.6,��
2021/05/30,06:00,0.620,0.913,0.582,1.109,0.790,0.372,0.641,0.603,�k��,5.8,��
2021/05/30,06:10,0.620,0.916,0.582,1.111,0.791,0.370,0.642,0.603,�k��,5.1,��
2021/05/30,06:20,0.620,0.914,0.583,1.112,0.790,0.370,0.641,0.603,�k��,4.6,��
2021/05/30,06:30,0.620,0.914,0.584,1.110,0.791,0.371,0.639,0.604,�k��,4.2,��
2021/05/30,06:40,0.621,0.916,0.581,1.109,0.791,0.371,0.641,0.603,�k��,5.4,��
2021/05/30,06:50,0.619,0.915,0.582,1.109,0.792,0.372,0.641,0.604,�k��,5.1,��
2021/05/30,07:00,0.619,0.912,0.581,1.112,0.790,0.370,0.641,0.602,�k��,4.3,��
2021/05/30,07:10,0.620,0.915,0.581,1.111,0.789,0.369,0.641,0.602,�k�k��,2.2,��
2021/05/30,07:20,0.619,0.915,0.582,1.109,0.791,0.371,0.641,0.601,�k�k��,2.2,��
2021/05/30,07:30,0.618,0.915,0.581,1.112,0.790,0.370,0.643,0.602,�k,2.0,��
2021/05/30,07:40,0.620,0.915,0.582,1.111,0.792,0.371,0.643,0.602,�k�k��,1.7,��
2021/05/30,07:50,0.620,0.915,0.582,1.111,0.791,0.370,0.643,0.602,�k�k��,2.6,��
2021/05/30,08:00,0.618,0.916,0.580,1.110,0.792,0.370,0.643,0.603,�k��,2.0,��
2021/05/30,08:10,0.618,0.915,0.583,1.109,0.793,0.370,0.642,0.603,�k,2.6,��
2021/05/30,08:20,0.618,0.915,0.581,1.112,0.792,0.371,0.641,0.602,�k�k��,3.3,��
2021/05/30,08:30,0.617,0.914,0.581,1.109,0.790,0.370,0.641,0.601,�k��,2.0,��
2021/05/30,08:40,0.617,0.911,0.580,1.110,0.790,0.370,0.642,0.602,�k�k��,1.5,��
2021/05/30,08:50,0.617,0.912,0.581,1.109,0.790,0.370,0.642,0.601,�k�k��,2.5,�L
2021/05/30,09:00,0.617,0.913,0.581,1.110,0.791,0.370,0.642,0.603,�k��,2.5,�L
2021/05/30,09:10,0.617,0.911,0.580,1.112,0.791,0.369,0.643,0.601,�k,1.7,�L
2021/05/30,09:20,0.617,0.912,0.581,1.109,0.792,0.371,0.642,0.600,�k��,1.2,��
2021/05/30,09:30,0.618,0.915,0.582,1.109,0.791,0.372,0.640,0.599,�k�k��,1.1,��
2021/05/30,09:40,0.619,0.912,0.581,1.110,0.793,0.373,0.643,0.600,���k��,1.5,��
2021/05/30,09:50,0.619,0.916,0.581,1.110,0.792,0.372,0.641,0.603,���k��,2.0,��
2021/05/30,10:00,0.618,0.915,0.583,1.109,0.793,0.372,0.642,0.602,�k��,2.0,��
2021/05/30,10:10,0.619,0.915,0.582,1.110,0.791,0.371,0.641,0.603,���k��,2.3,��
2021/05/30,10:20,0.618,0.917,0.583,1.111,0.791,0.370,0.643,0.601,�k��,2.2,��
2021/05/30,10:30,0.619,0.914,0.581,1.112,0.792,0.370,0.641,0.600,�k��,2.2,��
2021/05/30,10:40,0.621,0.914,0.579,1.112,0.788,0.370,0.644,0.601,�k��,2.3,��
2021/05/30,10:50,0.617,0.914,0.581,1.112,0.790,0.370,0.643,0.600,�k��,2.5,��
2021/05/30,11:00,0.618,0.911,0.580,1.111,0.791,0.372,0.644,0.600,���k��,2.8,��
2021/05/30,11:10,0.618,0.914,0.578,1.110,0.792,0.371,0.642,0.601,���k��,2.6,��
2021/05/30,11:20,0.620,0.914,0.581,1.113,0.792,0.372,0.644,0.601,��,2.5,��
2021/05/30,11:30,0.619,0.915,0.580,1.110,0.792,0.370,0.643,0.601,��,3.7,��
2021/05/30,11:40,0.618,0.915,0.581,1.112,0.792,0.372,0.643,0.603,��,3.4,��
2021/05/30,11:50,0.620,0.916,0.579,1.109,0.792,0.372,0.645,0.601,��,4.0,��
2021/05/30,12:00,0.621,0.915,0.581,1.109,0.793,0.373,0.642,0.601,��,3.3,��
2021/05/30,12:10,0.621,0.915,0.580,1.109,0.793,0.370,0.644,0.600,��,4.1,��
2021/05/30,12:20,0.621,0.914,0.581,1.111,0.794,0.371,0.642,0.601,���k��,4.3,��
2021/05/30,12:30,0.619,0.917,0.580,1.110,0.791,0.371,0.643,0.602,��,3.9,��
2021/05/30,12:40,0.621,0.917,0.580,1.109,0.793,0.372,0.642,0.601,���k��,3.6,��
2021/05/30,12:50,0.620,0.917,0.581,1.111,0.792,0.371,0.642,0.602,���쓌,2.9,��
2021/05/30,13:00,0.618,0.917,0.579,1.111,0.794,0.371,0.644,0.601,��,3.4,��
2021/05/30,13:10,0.621,0.916,0.582,1.110,0.794,0.371,0.644,0.601,��,3.1,��
2021/05/30,13:20,0.620,0.918,0.582,1.111,0.794,0.371,0.644,0.602,��,3.4,��
2021/05/30,13:30,0.622,0.917,0.581,1.115,0.795,0.371,0.645,0.600,���k��,3.9,��
2021/05/30,13:40,0.621,0.916,0.582,1.113,0.793,0.373,0.643,0.602,��,2.8,��
2021/05/30,13:50,0.620,0.917,0.581,1.112,0.795,0.371,0.644,0.601,���쓌,3.0,��
2021/05/30,14:00,0.620,0.915,0.583,1.111,0.795,0.372,0.643,0.603,���쓌,3.3,��
2021/05/30,14:10,0.619,0.917,0.580,1.110,0.796,0.371,0.642,0.601,���쓌,3.4,��
2021/05/30,14:20,0.622,0.917,0.578,1.111,0.796,0.371,0.642,0.603,�쓌,2.6,��
2021/05/30,14:30,0.622,0.918,0.579,1.111,0.794,0.371,0.642,0.602,�쓌,2.8,��
2021/05/30,14:40,0.620,0.917,0.580,1.112,0.794,0.370,0.642,0.603,�쓌,3.3,��
2021/05/30,14:50,0.621,0.918,0.581,1.111,0.793,0.372,0.643,0.601,�쓌,2.8,��
2021/05/30,15:00,0.620,0.919,0.580,1.111,0.796,0.371,0.643,0.602,�쓌,2.6,��
2021/05/30,15:10,0.620,0.918,0.581,1.112,0.795,0.372,0.643,0.601,��쓌,2.6,��
2021/05/30,15:20,0.620,0.918,0.583,1.112,0.797,0.372,0.643,0.599,��쓌,2.6,��
2021/05/30,15:30,0.622,0.919,0.581,1.113,0.795,0.371,0.644,0.601,�쓌,2.9,��
2021/05/30,15:40,0.620,0.918,0.582,1.113,0.795,0.371,0.643,0.600,�쓌,3.6,��
2021/05/30,15:50,0.619,0.918,0.580,1.113,0.794,0.371,0.643,0.602,�쓌,3.1,��
2021/05/30,16:00,0.621,0.919,0.580,1.113,0.796,0.370,0.643,0.600,�쓌,2.3,��
2021/05/30,16:10,0.619,0.919,0.580,1.115,0.794,0.370,0.644,0.600,���쓌,2.6,��
2021/05/30,16:20,0.620,0.920,0.581,1.112,0.796,0.372,0.643,0.602,�쓌,2.5,��
2021/05/30,16:30,0.621,0.919,0.579,1.111,0.793,0.371,0.643,0.602,��,1.4,��
2021/05/30,16:40,0.621,0.919,0.581,1.114,0.793,0.371,0.643,0.600,�쓌,2.6,��
2021/05/30,16:50,0.620,0.918,0.582,1.113,0.796,0.371,0.643,0.601,�쓌,2.2,��
2021/05/30,17:00,0.618,0.916,0.582,1.113,0.796,0.371,0.643,0.601,�쓌,3.2,��
2021/05/30,17:10,0.621,0.919,0.580,1.113,0.796,0.371,0.643,0.601,��쓌,2.6,��
2021/05/30,17:20,0.620,0.919,0.581,1.112,0.796,0.372,0.644,0.602,��쓌,3.7,��
2021/05/30,17:30,0.620,0.919,0.579,1.112,0.794,0.371,0.643,0.601,��쓌,2.6,��
2021/05/30,17:40,0.619,0.920,0.581,1.114,0.794,0.372,0.643,0.603,�쓌,2.6,��
2021/05/30,17:50,0.620,0.921,0.580,1.114,0.796,0.372,0.645,0.604,��,3.9,��
2021/05/30,18:00,0.621,0.921,0.581,1.113,0.795,0.372,0.642,0.603,��,3.6,��
2021/05/30,18:10,0.619,0.922,0.580,1.116,0.795,0.372,0.642,0.605,��쐼,3.4,��
2021/05/30,18:20,0.621,0.923,0.581,1.116,0.796,0.372,0.643,0.602,��,3.2,��
2021/05/30,18:30,0.621,0.924,0.581,1.114,0.795,0.371,0.642,0.604,��,2.8,��
2021/05/30,18:40,0.621,0.923,0.581,1.114,0.797,0.370,0.643,0.604,��쐼,3.1,��
2021/05/30,18:50,0.622,0.924,0.580,1.117,0.794,0.372,0.643,0.603,��쐼,4.5,��
2021/05/30,19:00,0.623,0.923,0.581,1.119,0.799,0.372,0.642,0.604,��쐼,2.9,��
2021/05/30,19:10,0.622,0.923,0.580,1.117,0.797,0.371,0.641,0.605,�쓌,1.2,��
2021/05/30,19:20,0.621,0.922,0.583,1.116,0.798,0.372,0.643,0.603,��,2.3,��
2021/05/30,19:30,0.622,0.923,0.582,1.115,0.798,0.371,0.643,0.604,��,1.7,��
2021/05/30,19:40,0.623,0.924,0.582,1.114,0.798,0.372,0.645,0.601,��쐼,1.2,��
2021/05/30,19:50,0.621,0.924,0.582,1.116,0.797,0.372,0.644,0.602,��,1.1,��
2021/05/30,20:00,0.620,0.922,0.582,1.118,0.795,0.372,0.643,0.604,���k��,1.7,��
2021/05/30,20:10,0.622,0.922,0.581,1.118,0.799,0.373,0.643,0.603,�k��,2.3,��
2021/05/30,20:20,0.621,0.922,0.584,1.115,0.797,0.373,0.645,0.604,�k��,2.6,��
2021/05/30,20:30,0.621,0.920,0.581,1.119,0.796,0.372,0.643,0.603,�k��,3.3,��
2021/05/30,20:40,0.621,0.921,0.582,1.115,0.798,0.372,0.644,0.601,���k��,3.3,��
2021/05/30,20:50,0.621,0.922,0.583,1.116,0.797,0.372,0.644,0.602,���k��,3.3,��
2021/05/30,21:00,0.623,0.920,0.581,1.114,0.795,0.373,0.644,0.602,���k��,3.6,��
2021/05/30,21:10,0.621,0.922,0.583,1.118,0.797,0.372,0.643,0.603,�k��,3.7,��
2021/05/30,21:20,0.622,0.921,0.582,1.118,0.798,0.371,0.644,0.603,���k��,3.2,��
2021/05/30,21:30,0.622,0.920,0.581,1.116,0.797,0.373,0.642,0.604,���k��,4.5,��
2021/05/30,21:40,0.622,0.918,0.581,1.116,0.798,0.373,0.644,0.603,�k��,4.4,��
2021/05/30,21:50,0.621,0.920,0.582,1.115,0.798,0.373,0.644,0.603,���k��,5.0,��
2021/05/30,22:00,0.622,0.922,0.582,1.118,0.797,0.372,0.643,0.602,���k��,4.5,��
2021/05/30,22:10,0.620,0.921,0.582,1.118,0.796,0.371,0.643,0.602,���k��,3.2,��
2021/05/30,22:20,0.622,0.919,0.583,1.115,0.797,0.373,0.645,0.603,���k��,3.4,��
2021/05/30,22:30,0.620,0.920,0.582,1.115,0.797,0.372,0.643,0.603,���k��,4.7,��
2021/05/30,22:40,0.621,0.919,0.582,1.117,0.796,0.372,0.644,0.600,�k��,4.4,��
2021/05/30,22:50,0.620,0.918,0.582,1.120,0.796,0.370,0.644,0.603,�k�k��,3.9,��
2021/05/30,23:00,0.619,0.918,0.583,1.115,0.797,0.373,0.644,0.603,�k��,2.2,��
2021/05/30,23:10,0.621,0.918,0.582,1.116,0.796,0.371,0.642,0.601,���k��,2.5,��
2021/05/30,23:20,0.620,0.919,0.581,1.118,0.796,0.370,0.644,0.603,���k��,2.3,��
2021/05/30,23:30,0.619,0.920,0.582,1.117,0.796,0.371,0.643,0.602,���k��,2.6,��
2021/05/30,23:40,0.619,0.919,0.583,1.115,0.797,0.373,0.643,0.602,��,2.9,��
2021/05/30,23:50,0.618,0.921,0.582,1.116,0.796,0.370,0.644,0.603,���k��,3.3,��
